Location: Unspecified
(43.4680°N, 87.1740°E)
Time: 23:32:42
(UTC+00:00)

X-37B - Visible Passes

Search period start: 21 September 2021 00:00
Search period end: 01 October 2021 00:00
Orbit: 381 x 393 km, 45.0° (Epoch: 29 August)

Date Brightness Start Highest point End Pass type
(mag) Time Alt. Az. Time Alt. Az. Time Alt. Az.
21 Sep 2.0 22:45:53 16° SSW 22:47:47 30° SSE 22:50:37 10° E visible
22 Sep 3.1 21:50:20 17° SE 21:50:20 17° SE 21:51:51 10° E visible
22 Sep 0.7 23:22:43 10° WSW 23:25:52 77° SSE 23:29:02 10° ENE visible
23 Sep 1.0 22:27:00 43° SSW 22:27:32 49° SSE 22:30:37 10° E visible
24 Sep 3.6 21:31:20 15° E 21:31:20 15° E 21:32:05 10° E visible
24 Sep 0.6 23:03:37 19° W 23:05:44 79° NNW 23:08:55 10° ENE visible
25 Sep 1.2 22:07:55 55° E 22:07:55 55° E 22:10:30 10° ENE visible
26 Sep 0.7 22:44:29 35° WNW 22:45:37 65° N 22:48:47 10° ENE visible
27 Sep 2.7 21:48:46 27° ENE 21:48:46 27° ENE 21:50:22 10° ENE visible
27 Sep 0.8 23:21:03 12° WNW 23:23:58 68° N 23:27:08 10° E visible
28 Sep 0.7 22:25:20 60° NNW 22:25:33 62° N 22:28:41 10° E visible
29 Sep 3.8 21:29:40 14° ENE 21:29:40 14° ENE 21:30:14 10° ENE visible
29 Sep 0.5 23:01:57 22° WNW 23:03:52 84° NNE 23:07:02 10° ESE visible
30 Sep 1.8 22:06:20 42° ENE 22:06:20 42° ENE 22:08:36 10° E visible
30 Sep 1.1 23:39:00 10° W 23:42:01 44° SSW 23:45:04 10° SE visible
